GFSSGP_250_rhum_060.txt.gz
RH
23 16 13 13 9 8 8 7 6 5 6 6 6 6 6 7 7 13 28 16 16 13 13 14 14 14 15 16 16 16 16 18 21 22 23 24 26 24 25 26 26 25 23 23 25 23 22 20 17
25 14 14 10 9 9 9 8 7 6 6 6 6 7 7 7 7 7 12 22 19 23 18 14 15 16 15 15 15 15 16 17 20 19 26 33 30 32 30 28 28 27 27 26 28 23 21 21 20
25 17 16 11 10 10 10 9 8 8 7 7 8 8 8 7 12 23 13 52 30 24 51 42 20 16 15 14 14 14 14 17 19 22 26 28 28 37 31 28 24 26 31 29 27 20 17 21 21
20 20 15 11 10 10 11 11 10 9 9 9 9 10 14 10 12 31 20 36 73 60 27 99 99 65 31 18 20 14 13 15 18 18 26 31 30 29 30 32 26 31 33 58 35 20 21 31 33
29 19 16 12 12 13 13 13 11 10 10 10 10 11 17 28 23 53 16 16 76 97 82 73 85 94 68 43 31 20 25 38 35 29 29 36 33 32 44 40 49 60 63 72 55 38 34 33 42
24 17 13 14 15 13 13 14 13 12 12 12 12 13 24 32 34 100 55 19 100 100 100 100 100 100 100 85 61 64 69 64 70 64 92 93 83 90 87 87 100 93 88 66 52 53 58 51 48
19 18 15 16 18 14 14 15 17 17 17 16 15 15 48 32 48 100 92 60 100 100 100 100 100 100 100 100 99 88 88 84 78 92 100 100 100 98 99 100 100 91 74 64 60 58 56 57 64
19 17 15 19 23 17 18 24 27 25 26 27 19 26 89 94 100 100 98 100 88 100 100 100 100 100 100 100 100 83 98 100 100 98 100 99 94 99 99 94 91 73 64 58 57 56 60 64 68
20 15 17 29 28 20 29 32 40 37 39 46 24 32 100 93 100 100 92 100 100 100 100 100 100 88 100 100 100 100 100 99 100 100 100 100 100 100 100 82 66 56 64 87 81 95 97 94 80
19 14 24 31 28 26 44 50 50 64 73 76 93 80 100 100 100 100 100 96 100 100 100 100 100 100 100 100 100 100 100 96 100 100 100 100 100 100 100 96 100 100 100 100 100 100 100 99 85
15 15 31 30 29 44 54 57 68 63 76 86 53 88 93 76 89 100 100 99 89 100 100 100 100 93 100 100 100 100 100 100 100 100 100 100 100 100 100 95 91 100 100 100 100 100 83 90 76
15 22 37 38 53 50 67 73 63 74 89 82 66 51 47 62 96 100 100 100 61 63 74 74 63 81 100 100 100 100 100 100 100 100 100 100 100 100 100 100 100 99 98 89 99 100 99 80 72
17 32 49 54 70 79 80 80 76 77 99 100 100 73 50 100 95 76 66 81 77 26 18 34 52 100 100 100 100 100 100 100 100 100 100 100 100 100 100 100 100 100 100 100 100 97 100 98 100
20 42 55 60 75 77 90 80 98 88 78 100 100 100 100 100 64 48 32 30 31 40 23 22 98 100 100 100 100 100 100 100 100 100 100 100 100 100 100 100 100 100 100 100 93 100 100 100 96
27 48 58 49 72 74 85 83 86 85 99 100 100 100 100 97 78 52 51 68 74 50 28 21 31 86 100 100 100 100 100 100 100 100 100 100 100 100 100 100 100 100 100 100 89 100 100 91 91
32 55 66 68 76 80 79 87 82 92 98 100 100 100 100 91 59 61 94 96 88 89 78 48 38 46 85 98 100 100 100 100 100 100 100 100 100 100 100 100 100 100 100 100 99 77 83 84 96
30 57 66 65 90 98 99 86 86 99 100 100 100 100 100 95 72 85 100 100 100 99 98 99 100 100 94 85 100 100 100 100 100 100 100 100 100 100 100 100 100 95 93 99 92 77 86 96 88
31 62 69 67 80 100 95 78 88 74 75 82 92 96 99 92 73 98 100 100 85 97 100 92 98 100 100 100 100 100 100 100 100 100 100 100 100 100 100 91 93 83 88 81 97 88 90 70 86
29 68 63 78 86 100 100 99 100 93 74 63 60 78 89 85 100 80 100 92 100 100 100 88 76 84 91 100 100 100 100 100 100 100 100 100 97 93 88 85 74 71 67 63 73 70 81 74 63
29 62 65 69 100 92 98 100 100 100 100 92 86 90 100 93 99 96 100 100 81 66 68 66 58 58 62 86 95 93 92 91 78 86 90 91 82 71 63 69 71 72 62 68 65 70 70 53 48
28 54 70 66 100 100 82 99 100 100 100 75 61 83 99 100 100 88 96 100 100 100 83 64 58 59 71 96 71 65 64 62 54 50 58 64 69 79 71 75 75 68 75 72 67 63 52 44 48
29 47 62 68 84 90 90 88 89 88 77 95 98 89 82 83 100 99 80 81 95 96 100 99 95 72 85 98 63 44 34 41 49 73 91 91 75 76 88 87 82 63 60 53 51 46 55 57 61
32 40 62 62 85 78 85 84 93 100 100 100 100 100 93 87 84 86 73 81 76 86 100 100 97 95 83 86 93 91 60 53 60 59 65 63 68 74 74 72 66 54 52 52 49 79 70 64 56
30 33 57 70 68 70 77 72 72 76 91 100 100 100 100 100 99 100 100 89 96 98 84 79 84 87 86 78 74 59 66 87 94 80 69 63 57 57 60 59 54 56 63 63 93 76 63 49 47
32 32 50 64 73 75 80 89 91 90 90 83 84 92 100 100 100 100 98 94 92 100 99 98 93 80 63 61 72 74 74 72 63 63 64 65 62 64 80 91 90 99 100 99 84 75 69 68 52
36 30 39 62 69 76 79 88 100 90 96 92 85 81 72 89 97 100 100 100 100 100 100 90 88 90 86 86 90 89 70 62 72 70 100 93 67 83 100 90 100 100 100 76 70 70 73 68 55
47 36 35 53 70 70 92 85 80 98 100 98 100 100 74 56 57 65 77 91 96 99 100 100 92 88 91 81 73 67 68 93 80 97 100 100 84 100 100 100 100 88 83 93 82 87 71 54 55
52 36 37 44 62 77 76 83 68 81 74 96 78 81 78 80 83 71 67 70 68 60 63 62 63 58 43 43 59 70 76 95 100 100 100 94 100 100 100 100 96 68 74 78 69 60 54 52 49
61 41 40 39 40 54 79 77 76 79 81 90 98 90 94 88 81 72 61 53 52 50 54 61 61 66 74 61 49 45 53 66 96 100 100 100 100 100 100 93 94 93 77 51 54 78 66 70 82
64 50 36 43 42 45 72 82 74 75 76 68 84 83 81 81 81 70 71 70 68 70 66 44 48 50 52 52 45 37 41 63 79 87 100 100 100 100 100 100 96 96 100 100 100 86 75 84 88

GFSSGP_250_rhum_066.txt.gz
RH
42 35 32 29 28 24 18 16 13 14 11 9 7 6 6 6 6 5 13 100 100 100 99 95 100 20 12 14 15 15 15 16 18 17 16 17 17 17 16 16 16 14 14 15 16 17 17 16 15
38 38 38 28 26 20 18 15 14 10 9 7 8 9 6 12 41 7 99 100 100 100 94 100 100 63 13 15 17 18 20 22 23 21 20 21 22 22 22 20 20 18 17 17 18 18 16 15 15
38 36 32 26 21 19 19 15 12 9 8 8 10 33 12 8 9 30 100 100 100 98 100 100 100 100 42 18 22 24 29 28 24 24 26 26 24 26 25 22 21 22 20 22 22 23 20 19 16
41 42 37 30 20 20 19 14 9 8 8 22 13 99 84 61 15 60 100 100 100 100 84 100 99 69 90 65 30 19 28 37 41 36 31 31 26 23 22 23 22 22 25 26 22 24 25 25 21
46 35 39 24 23 20 14 10 7 9 31 77 32 66 100 100 73 56 100 100 100 100 100 100 95 91 83 100 100 85 61 52 52 46 40 39 29 26 24 23 21 20 22 25 26 26 27 22 27
42 42 37 26 28 18 12 9 8 14 36 94 100 100 98 99 92 26 99 100 100 100 100 100 100 100 95 78 94 100 100 99 93 70 79 72 52 46 41 38 29 36 50 64 77 59 46 40 43
50 51 33 32 24 14 10 9 10 17 23 55 100 86 100 100 100 98 73 100 91 100 100 100 96 94 100 100 98 100 99 100 94 59 75 80 66 85 96 94 78 66 72 76 82 88 82 68 56
66 58 34 27 18 12 10 13 15 22 23 87 64 92 100 100 100 92 26 37 100 99 100 100 92 100 100 95 100 100 100 100 100 100 100 100 100 100 100 92 88 93 97 98 88 83 64 70 64
85 50 38 22 14 11 14 15 32 73 44 50 100 100 100 92 93 74 19 15 77 80 94 100 98 100 100 100 100 100 100 100 100 100 100 100 100 100 100 100 99 94 90 100 88 89 86 77 68
60 48 30 23 15 13 22 18 61 100 83 68 100 100 92 71 100 94 75 60 54 68 85 100 100 99 100 100 99 100 100 71 100 100 86 100 100 100 100 100 98 100 85 84 84 75 86 67 77
53 46 27 25 17 18 25 21 34 83 100 100 100 100 100 94 100 95 97 86 87 63 62 100 100 100 100 100 100 100 100 99 100 100 69 96 100 100 100 100 100 100 100 100 100 100 98 100 100
79 41 33 26 16 28 23 28 28 88 75 98 100 100 73 100 98 81 80 97 100 100 100 100 100 100 98 100 100 100 100 100 100 96 89 89 96 100 100 100 100 100 100 100 100 100 100 100 99
66 54 40 25 17 35 32 33 79 88 91 64 64 75 100 93 86 100 94 81 92 100 100 100 100 100 100 100 100 100 100 100 96 100 100 69 59 94 100 100 100 100 100 100 100 100 100 96 100
50 79 37 23 22 40 45 77 94 100 100 100 73 59 88 64 95 100 100 100 100 98 100 100 100 100 100 100 100 100 100 100 100 100 93 99 90 65 85 91 86 100 100 100 100 100 100 100 100
59 84 37 22 34 50 41 88 100 100 100 100 96 43 67 66 88 100 85 79 100 100 100 100 100 100 100 100 100 100 100 100 100 100 100 100 100 100 99 99 87 99 100 100 100 100 100 97 100
93 58 43 26 38 56 42 79 92 100 100 98 92 46 58 88 100 100 99 71 100 100 100 100 100 100 100 100 100 100 92 94 93 100 100 100 100 100 100 100 100 100 100 100 100 100 100 100 100
91 60 51 26 32 55 59 64 100 94 100 95 91 61 72 96 100 100 96 98 92 99 99 100 100 100 100 100 100 100 97 85 97 100 100 100 100 100 100 100 100 100 100 100 100 100 100 100 94
57 54 51 25 47 63 74 94 94 91 93 95 73 67 81 80 84 100 100 92 63 58 89 98 100 100 100 100 100 100 100 100 94 90 94 100 100 100 100 100 100 100 93 100 100 100 100 98 96
79 87 46 26 46 73 80 62 52 77 84 50 85 92 80 73 87 100 97 88 76 86 72 100 100 100 100 100 100 100 100 100 95 89 80 74 88 98 100 100 100 100 100 100 100 100 100 100 100
100 86 39 30 33 69 96 100 95 86 64 69 68 94 100 74 57 85 100 83 66 62 59 83 78 72 73 65 62 73 77 82 79 100 98 100 100 100 100 100 100 100 100 91 100 100 100 93 89
100 79 38 29 25 53 79 100 98 71 100 100 82 78 89 100 87 61 61 63 81 90 54 46 36 40 44 40 47 60 75 97 100 99 90 93 96 100 99 100 99 97 96 95 95 98 93 85 82
100 80 37 28 25 45 69 62 54 92 76 99 76 83 80 78 90 89 69 100 86 100 100 99 96 61 64 86 86 62 62 67 66 64 76 100 100 100 100 98 86 76 68 68 73 72 70 62 56
100 85 37 40 28 40 61 76 59 68 66 98 73 83 91 100 100 100 100 70 87 100 100 94 59 72 83 98 100 84 60 64 55 48 52 67 82 71 81 75 58 58 64 54 54 53 48 42 65
100 87 39 44 34 30 51 65 64 75 68 97 95 97 100 99 100 100 100 91 87 99 99 100 100 100 100 92 90 88 83 90 70 80 83 74 96 73 69 67 70 58 52 57 50 47 64 88 99
100 92 44 51 37 32 31 52 59 63 66 70 84 100 85 93 100 100 93 96 99 88 77 69 69 78 85 79 77 77 74 71 70 74 76 68 70 86 76 61 56 48 56 53 43 42 53 58 96
100 83 51 61 46 38 34 31 60 64 70 77 72 69 80 74 79 96 100 100 85 79 89 90 100 94 66 73 81 94 100 96 77 67 64 59 65 68 63 68 82 71 55 46 36 42 60 100 100
100 76 60 62 72 48 38 31 38 72 68 74 68 62 79 79 61 75 72 89 99 98 90 78 83 81 78 72 76 82 60 59 57 51 50 57 59 63 69 60 62 65 53 57 69 74 82 86 87
100 61 64 67 68 70 52 34 32 40 53 72 74 65 78 99 94 60 64 72 69 71 74 80 67 59 55 56 56 59 58 51 46 53 72 81 100 92 82 60 54 49 59 74 75 82 100 94 88
100 62 59 68 63 59 58 43 38 33 38 47 69 90 70 70 72 95 96 66 70 68 78 77 70 71 67 62 56 48 45 42 66 70 93 90 90 72 65 60 56 58 63 67 84 100 100 100 100
100 87 56 68 64 62 64 39 41 41 34 37 36 49 67 79 71 64 77 77 62 66 65 78 70 60 52 47 47 95 91 85 100 93 76 66 58 54 59 57 47 43 51 92 100 100 100 100 100

GFSSGP_250_rhum_069.txt.gz
RH
48 47 45 48 44 41 36 27 23 18 16 13 12 10 9 6 5 6 5 6 26 97 77 100 93 100 100 100 100 96 61 13 17 21 16 20 20 17 18 16 16 18 17 16 14 12 13 13 12
44 48 44 40 46 36 29 27 21 19 14 12 10 8 6 12 9 26 82 38 53 98 86 100 100 91 99 100 100 98 100 90 14 15 17 47 30 25 25 21 20 21 20 21 17 19 17 18 16
43 41 40 49 40 29 28 24 20 18 13 10 8 8 20 23 43 38 69 47 100 89 100 100 100 98 94 86 95 91 83 81 17 15 18 20 25 27 28 26 22 23 24 22 21 22 20 21 19
41 38 57 40 30 32 25 23 17 13 10 8 9 16 36 29 62 88 98 98 100 100 100 89 87 99 100 100 100 100 82 37 23 16 17 20 23 28 27 26 26 25 25 25 22 22 23 20 20
45 42 44 34 39 31 26 18 13 10 10 12 13 72 44 44 48 67 74 100 100 93 97 87 100 100 87 100 100 91 81 79 90 48 27 25 33 51 42 35 30 28 27 29 28 25 22 22 21
65 64 43 48 39 30 22 16 12 10 12 17 31 71 75 42 63 99 100 100 100 81 100 99 97 91 100 100 99 99 99 95 83 97 100 100 99 98 67 57 52 44 36 36 32 32 31 28 28
96 48 76 45 45 24 19 14 12 12 16 94 55 83 100 88 55 88 100 100 99 69 100 100 88 100 96 100 95 100 93 93 100 70 93 100 97 82 78 72 66 90 80 73 71 58 49 48 49
69 88 98 47 35 26 16 12 17 18 28 100 79 100 100 100 68 71 96 97 100 100 100 73 87 100 100 100 100 100 97 100 100 95 69 100 100 76 89 100 100 100 100 100 88 79 63 56 57
85 98 76 64 52 21 14 12 33 31 20 82 87 100 100 100 76 67 95 100 100 100 92 84 96 98 100 100 100 100 100 100 100 100 100 100 100 100 98 100 100 100 100 99 85 77 65 56 51
76 100 82 91 36 19 13 18 49 48 31 36 82 100 96 100 76 66 92 100 97 100 100 86 82 100 100 100 100 100 100 100 100 100 100 99 98 89 100 100 99 100 99 100 82 69 54 61 67
100 75 100 70 27 18 15 17 91 96 98 100 100 97 94 100 88 95 93 76 98 97 98 99 83 100 100 100 100 100 100 100 100 100 99 100 88 98 100 100 100 92 97 82 100 91 99 99 100
88 100 92 44 26 20 31 22 86 94 100 91 88 85 80 95 96 59 76 61 67 100 100 100 98 99 92 100 100 100 100 100 100 100 100 73 88 98 100 100 100 100 100 100 100 100 99 99 100
77 100 61 49 32 22 54 30 80 100 91 94 90 100 100 64 79 100 74 50 43 86 100 100 97 100 97 100 100 100 100 100 100 96 91 100 70 67 83 86 99 100 100 100 100 100 100 83 89
96 73 62 56 35 23 52 45 55 99 100 100 100 100 98 86 84 100 99 78 29 36 79 100 100 100 100 98 95 100 100 100 100 100 100 96 70 68 75 72 77 79 99 100 100 100 100 100 100
77 87 66 46 54 23 30 76 80 100 100 100 100 100 77 68 54 85 99 100 65 80 57 72 100 100 100 100 89 100 100 100 100 100 91 92 98 89 79 75 74 78 88 100 100 100 100 100 100
99 78 69 56 75 25 36 86 99 100 100 91 87 74 71 76 56 76 100 100 100 100 100 100 100 100 100 100 94 100 100 100 86 88 100 100 100 100 100 100 100 96 86 67 85 96 92 90 92
58 77 57 98 61 25 38 48 73 88 94 95 53 71 95 71 57 99 78 98 95 100 100 100 100 100 100 100 100 99 98 100 99 100 100 99 100 100 100 100 100 100 100 100 100 100 100 100 100
67 64 91 100 40 24 37 63 47 42 48 58 95 94 98 68 54 100 100 89 100 100 100 100 100 100 100 100 100 99 100 98 87 91 100 100 100 97 100 100 100 100 100 100 100 100 100 100 100
72 62 100 97 50 28 29 75 81 74 68 76 100 100 100 72 67 87 97 94 100 100 100 100 100 100 100 100 100 100 100 100 100 100 100 100 100 100 97 99 97 94 92 92 100 100 100 100 100
82 85 100 90 62 28 25 45 75 79 80 100 96 80 95 98 67 73 97 98 100 92 100 93 96 100 100 100 100 100 100 99 100 100 100 95 100 96 100 100 98 95 100 100 100 100 100 100 100
61 96 100 100 64 26 25 37 58 61 54 75 98 64 55 98 86 59 92 100 100 100 100 100 98 100 100 100 100 99 99 97 93 95 89 90 97 91 93 94 98 98 100 100 91 99 88 92 88
62 100 100 100 70 28 27 30 49 55 50 64 78 85 77 67 91 100 78 71 92 98 74 64 62 80 88 85 77 78 85 83 81 79 72 69 78 80 81 90 98 100 91 77 78 64 80 72 67
58 100 100 100 79 34 30 26 46 51 48 53 74 87 70 74 62 79 100 87 71 68 77 72 72 61 54 65 81 68 64 76 81 86 75 63 63 69 71 68 72 72 73 77 77 78 72 63 55
71 95 100 100 85 38 33 29 32 50 55 54 61 85 77 79 77 63 65 87 95 89 99 100 90 82 82 78 59 48 63 63 70 64 45 55 57 62 74 67 63 76 73 77 73 67 58 46 40
98 85 90 100 92 39 39 32 25 37 58 72 61 57 58 62 64 83 95 90 76 69 100 100 98 100 100 100 97 75 76 68 63 60 59 55 61 58 57 53 61 63 60 57 52 46 42 41 51
100 100 99 100 94 41 45 37 30 27 35 59 83 87 70 69 82 69 62 66 66 67 52 57 67 90 90 81 92 96 76 66 60 58 55 44 48 50 51 56 55 54 52 52 52 44 41 42 44
100 100 100 100 92 43 46 42 46 31 27 29 50 64 81 84 62 74 78 65 72 76 60 57 52 53 54 56 53 49 61 57 43 43 42 47 55 64 68 80 83 75 49 46 59 76 74 89 84
74 100 100 100 89 48 47 46 53 35 32 29 36 45 55 51 66 85 100 85 75 69 83 74 65 68 68 62 57 50 44 42 46 50 61 94 96 100 100 100 100 96 53 71 72 68 81 78 87
73 100 100 100 100 48 46 48 55 43 34 32 31 34 50 57 59 52 59 62 64 85 72 59 58 52 42 38 55 46 43 49 100 100 98 99 100 100 100 100 100 96 79 59 54 56 51 53 48
68 100 100 100 100 86 53 48 64 57 43 39 37 33 34 39 46 61 66 62 66 73 88 97 53 51 94 100 100 100 99 100 100 100 99 100 100 100 100 100 100 85 54 45 39 42 46 58 78

GFSSGP_250_rhum_072.txt.gz
RH
55 52 49 48 47 42 37 33 36 35 26 22 20 15 16 15 11 10 8 9 66 21 9 10 27 74 100 100 100 100 100 100 100 100 100 76 27 13 15 22 30 38 25 26 28 22 17 18 17
56 56 61 46 50 39 36 35 33 26 24 20 18 17 12 10 9 10 9 21 19 43 76 51 100 100 89 92 100 100 100 100 99 90 97 94 86 32 15 18 28 42 45 40 26 24 22 24 21
54 61 53 54 38 37 34 34 26 23 22 18 16 13 10 8 8 7 30 79 30 78 92 100 100 73 89 100 89 100 100 100 95 75 66 66 90 79 25 24 48 40 38 58 39 27 26 26 23
47 61 67 45 41 40 52 35 32 25 19 14 11 10 8 7 9 14 90 89 39 68 100 100 87 79 92 84 96 100 100 100 84 86 52 51 58 44 21 18 25 26 26 59 42 26 27 28 26
67 76 49 67 66 55 44 32 32 23 16 11 9 8 10 10 24 20 98 72 20 70 100 100 75 98 100 100 100 100 97 100 100 64 68 77 41 26 21 15 16 18 20 22 25 24 27 27 25
88 66 93 98 53 62 69 34 24 17 13 10 8 11 36 91 67 30 95 97 67 99 100 100 100 100 100 86 100 100 86 100 98 100 88 68 56 92 79 66 58 57 35 33 60 42 46 45 39
81 81 78 45 55 92 59 31 22 15 11 10 13 40 100 87 76 83 100 100 100 100 100 100 100 100 100 100 100 100 100 100 100 100 98 73 97 100 100 100 100 97 85 82 90 74 68 67 56
72 55 39 55 97 84 65 33 18 13 13 16 23 100 100 90 84 72 94 100 100 100 100 100 100 100 100 100 100 100 100 98 97 100 100 76 98 90 79 68 62 70 56 76 99 100 98 100 94
69 57 51 85 81 89 53 22 15 19 23 28 42 90 100 82 67 84 100 91 100 72 100 100 100 100 100 100 100 100 100 100 94 100 100 97 95 97 93 100 80 57 55 79 98 100 100 100 94
78 52 62 55 85 92 32 21 13 31 45 50 80 98 100 80 94 91 100 99 100 99 100 100 100 100 99 100 100 100 100 100 97 100 97 100 100 100 100 97 84 100 75 90 99 98 93 81 81
60 58 45 63 90 56 25 32 14 40 56 57 94 100 99 66 86 88 100 100 97 98 100 100 100 100 100 100 100 100 100 100 91 100 100 100 100 95 78 94 100 100 100 100 74 66 70 54 67
70 73 82 93 60 58 31 30 20 46 90 81 56 100 100 84 84 80 96 100 100 97 95 98 100 96 100 100 100 100 100 100 100 100 100 100 100 100 92 100 98 100 100 100 100 73 75 74 87
47 72 75 71 60 44 55 30 31 71 97 91 99 90 100 98 77 68 76 100 94 85 100 85 100 96 100 80 100 100 100 100 100 100 100 100 100 100 93 100 68 94 96 96 100 100 99 100 100
42 63 75 69 64 48 72 24 40 100 80 86 93 98 94 100 82 53 57 94 100 100 100 100 100 100 100 100 100 100 100 100 100 100 100 100 100 100 100 85 79 71 47 70 62 95 99 99 100
41 42 61 58 55 65 76 26 34 79 80 69 50 72 70 64 69 50 44 64 84 86 95 100 100 100 100 100 100 100 100 100 100 100 100 100 100 92 82 79 94 74 67 58 56 76 83 89 98
54 48 57 54 57 84 63 25 29 77 100 87 64 66 48 40 44 36 31 30 64 66 76 98 100 100 100 100 100 100 100 100 100 98 100 100 100 100 100 100 79 76 56 39 40 79 87 84 84
57 40 43 53 67 88 76 32 24 48 100 96 83 73 55 44 42 45 33 40 48 60 72 93 100 100 100 100 100 100 100 100 100 100 100 99 98 100 100 100 100 94 73 64 84 78 67 86 71
63 38 38 65 75 99 94 30 24 50 54 87 84 87 58 50 48 48 62 55 47 46 82 87 100 100 92 100 100 100 100 100 100 100 100 100 93 100 100 100 100 84 92 74 100 78 91 82 91
60 37 49 67 95 100 97 33 24 41 58 66 72 73 98 92 82 45 50 70 58 69 100 100 71 100 100 100 100 100 100 100 100 100 100 100 100 100 100 99 88 75 100 100 81 90 88 94 97
45 37 67 66 83 100 92 39 23 44 63 70 99 97 98 98 85 74 56 76 92 100 100 100 100 100 91 89 100 90 100 100 100 98 98 100 100 98 98 99 79 93 100 100 100 100 100 100 100
41 45 50 55 100 100 94 39 25 38 56 45 60 65 80 80 57 70 65 85 86 100 100 98 100 95 99 100 100 100 94 91 89 100 82 99 100 75 78 96 100 100 100 95 94 98 100 100 100
50 52 54 63 93 100 89 46 25 30 56 50 51 76 82 91 65 55 76 97 100 96 100 100 100 86 96 100 100 100 96 97 99 99 100 100 100 90 98 87 80 84 87 78 80 76 79 79 73
68 77 92 57 82 90 94 54 26 28 50 46 62 71 88 77 61 57 49 80 94 100 100 100 93 98 80 67 76 82 87 87 86 85 84 84 95 85 97 91 85 70 62 59 59 57 53 53 59
72 90 98 65 47 50 86 62 28 28 30 54 60 76 94 79 80 63 68 60 58 77 91 100 100 100 100 100 100 98 95 98 92 91 81 68 91 91 80 73 61 57 53 58 56 51 51 47 44
81 96 92 81 65 78 100 62 33 31 29 34 51 65 95 88 78 79 88 73 73 53 55 66 80 94 100 97 87 89 100 100 91 76 80 67 61 60 55 51 48 48 49 48 50 51 51 48 48
97 82 100 75 70 93 100 75 33 30 34 29 31 46 56 61 88 88 66 72 70 73 56 61 74 95 100 100 99 100 100 100 93 87 65 67 51 44 47 57 56 55 61 60 58 61 51 48 54
99 68 95 59 100 95 100 89 37 34 32 30 27 31 53 62 56 55 58 55 60 67 76 73 58 56 77 79 75 73 67 57 55 52 49 45 55 79 95 98 84 70 65 54 36 30 35 43 58
87 84 67 65 100 66 100 100 42 38 41 32 30 29 33 53 75 68 56 72 68 63 61 57 76 74 64 50 41 38 42 54 47 43 55 97 74 66 90 99 100 86 86 60 58 72 70 75 98
66 76 70 94 70 88 100 100 53 43 58 51 34 28 28 30 35 48 68 83 74 67 62 55 59 56 58 60 60 100 100 100 100 100 100 100 90 100 100 100 100 100 100 100 100 64 79 100 100
64 70 65 82 64 100 100 100 100 52 78 99 60 33 31 30 32 39 44 47 52 57 58 56 54 68 87 100 100 99 76 100 85 84 100 88 100 100 100 100 100 100 100 86 100 79 100 100 99